Warning: Javascript must be enabled to use all the features on this page!


Page Loading - Please Wait...

* We've detected you're using a mobile device. Find our Next Generation Station Page here.
Click to hideNews Bulletins

Peak Streamflow for the Nation

USGS 06473000 JAMES RIVER AT ASHTON,SD

Spink County, South Dakota
Hydrologic Unit Code 10160006
Latitude  44°59'54", Longitude  98°28'50" NAD27
Drainage area 9,712  square miles
Contributing drainage area 8,333  square miles
Gage datum 1,245.4 feet above NAVD88
Output formats
Table
Graph
Tab-separated file
peakfq (watstore) format
Reselect output format
Water
Year
Date Gage
Height
(feet)
Stream-
flow
(cfs)
1946 1946-03-28 7.12 494
1947 1947-05-22 8.83 786
1948 1948-05-16 10.902 1,110
1949 1949-05-21 7.94 579
1950 1950-05-19 19.14 5,170
1951 1951-05-18 9.39 840
1952 1952-04-23 19.59 4,860
1953 1953-08-04   1,000
1954 1954-06-30 6.34 317
1955 1955-07-30 5.842 194
1956 1956-07-07 5.57 204
1957 1957-06-22 5.54 170
1958 1958-03-30 7.46 373
1959 1959   0.00Bm
1960 1960-04-10 12.042 520
1961 1961-05-25 4.52 16.0
1962 1962-08-30 10.082 805
1963 1963-06-30 6.51 320
1964 1964-07-28 8.60 663
1965 1965-05-28 10.19 900
1966 1966-04-14 15.16 2,170
1967 1967-05-11 9.242 722
1968 1968-05-30 5.99 259
1969 1969-04-24 20.632 5,680
1970 1970-04-28 7.66 444
1971 1971-07-19 5.432 195
1972 1972-04-19 9.952 800
1973 1973-03-17 5.221 130
1974 1974-06-10 5.12 132
1975 1975-08-09   1,1301
1976 1976-04-07 6.87 393
1977 1977-03-16 5.211 98.0
1978 1978-04-18 14.062 1,680
1979 1979-05-18 14.86 2,060
1980 1979-11-13 5.922 295
1981 1981-04-16 4.132 68.0
1982 1982-05-05 11.03 1,000
1983 1983-04-24 10.02 828
1984 1984-05-06 11.47 1,170
1985 1985-03-22 10.331 750
1986 1986-05-10 16.741 1,930
1987 1987-04-25 12.52 1,370
1988 1987-12-11 5.78 320
1989 1989-04-20 12.851,2 1,3302
1990 1990-07-28 6.09 259
1991 1991-05-29   3001,2
1992 1992-07-01 7.22 360
1993 1993-09-10 12.921,2 1,3902
1994 1994-04-02 16.232 2,410
1995 1995-05-22 21.211,2 4,500
1996 1996-05-19 15.26 2,180
1997 1997-04-23 25.032 9,150
1998 1998-05-18 12.79 1,320
1999 1999-06-11 15.572 2,290
2000 2000-04-10 9.432 794
2001 2001-04-29 18.762 3,750
2002 2002-05-15 6.352 324
2003 2003-07-09 8.53 680
2004 2004-07-10 9.13 832
2005 2005-07-16 13.84 2,010
2006 2006-04-16 9.38 903
2007 2007-05-14 17.391 3,640
2008 2008-04-13 6.062 336
2009 2009-04-29 23.031,2 9,500
2010 2010-04-04 23.711,2 8,510
2011 2011-05-02 24.211,2 9,520
2012 2012-03-16 9.89 1,090
2013 2013-07-31 10.23 1,270
2014 2014-07-10 10.08 1,130
2015 2015-07-02 10.34 1,310
2016 2016-03-09 6.43 494
2017 2017-03-28 9.791,2 1,120
2018 2018-05-23 9.24 1,010
2019 2019-04-18 21.531,2 6,490
2020 2020-04-20 18.36 4,910
2021 2021-04-11 5.452 322
2022 2022-06-09 17.51 3,980
2023 2023-05-17 16.722 3,770
?
  Peak Gage-Height Qualification Codes.
?
  Peak Streamflow Qualification Codes.